Weather Roundup
Issued by NWS

Home | Current Version | Previous Version | Graphics & Text | Print | Product List | Glossary Off
Versions: 1 2 3 4 5 6 7 8 9 10 11 12 13 14 15 16 17 18 19 20 21 22 23 24 25 26 27 28 29 30 31 32 33 34 35 36 37 38 39 40 41 42 43 44 45 46 47 48 49 50

312
NZUS93 KARX 240210
HRRWXR

CURRENT HOURLY OBSERVATIONS ACROSS
MUCH OF THE UPPER MISSISSIPPI VALLEY
NATIONAL WEATHER SERVICE LA CROSSE WI
900 PM CDT MON MAY 23 2016


...SOUTHEAST MINNESOTA...


CITY           SKY/WX    TMP DP  RH WIND       PRES   REMARKS
ROCHESTER      PTCLDY    65  62  90 S9        29.81S
ROCHESTER/MAYO FAIR      65  63  95 S7        29.80F
WINONA         MOCLDY    70  59  68 SW10      29.78S
AUSTIN         PTCLDY    64  61  88 SW5       29.80S
ALBERT LEA     PTCLDY    66  63  88 S8        29.80R
DODGE CENTER   PTCLDY    64  61  88 S9        29.80S
PRESTON        MOCLDY    64  60  88 S3        29.82F
OWATONNA       CLOUDY    66  61  82 S12       29.78S
FARIBAULT      PTCLDY    66  61  82 S5        29.78S
$$

...ELSEWHERE IN MINNESOTA...


CITY           SKY/WX    TMP DP  RH WIND       PRES   REMARKS
MINNEAPOLIS    CLOUDY    70  61  73 SW6       29.75R
INTNL FALLS    CLOUDY    65  54  67 CALM      29.70R
DULUTH         LGT RAIN  64  61  90 W6        29.76S
RED WING       CLOUDY    68  57  68 E3        29.76F
REDWOOD FALLS  CLOUDY    66  60  81 SW18      29.72F
MANKATO        CLOUDY    70  57  64 S12       29.76R
WORTHINGTON    LGT RAIN  65  61  87 S14       29.79F
FAIRMONT       CLOUDY    66  61  82 W8        29.78F
$$

...SOUTHWEST WISCONSIN...


CITY           SKY/WX    TMP DP  RH WIND       PRES   REMARKS
LA CROSSE      PTCLDY    72  56  57 S7        29.80S
PRAIRIE DU CHI CLOUDY    76  42  29 S3        29.82S
BOSCOBEL       NOT AVBL
LONE ROCK      CLEAR     73  46  38 SE6       29.84F
PLATTEVILLE    CLEAR     73  44  36 S8        29.86S
FORT MC COY    PTCLDY    73  56  56 W5        29.83R
CAMP DOUGLAS   PTCLDY    75  48  38 S1        29.82S
MAUSTON-NEW LI PTCLDY    74  47  37 S3        29.82S
VIROQUA        FAIR      70  55  57 W3        29.84R
WIS DELLS      CLEAR     72  43  34 S5        29.84S
$$

...ELSEWHERE IN WISCONSIN...


CITY           SKY/WX    TMP DP  RH WIND       PRES   REMARKS
MILWAUKEE      MOCLDY    66  37  34 S7        29.91S
MADISON        PTCLDY    75  47  36 S7        29.86S
GREEN BAY      CLEAR     70  43  37 S8        29.85S
EAU CLAIRE     CLOUDY    69  65  86 SW6       29.80R
BLACK RVR FLS  FAIR      73  53  48 S3        29.80S
MEDFORD        CLOUDY    70  49  45 S6        29.82R
WAUSAU         PTCLDY    75  47  36 S8        29.81S
WIS RAPIDS     PTCLDY    74  43  32 S6        29.83S
MARSHFIELD     CLOUDY    71  45  39 S8        29.81S
RICE LAKE      PTCLDY    71  57  62 S6        29.79F
$$

...NORTHEAST IOWA...


CITY           SKY/WX    TMP DP  RH WIND       PRES   REMARKS
WATERLOO       CLOUDY    70  56  61 S8        29.82R
DUBUQUE        CLEAR     68  47  46 SW7       29.87S
DECORAH        PTCLDY    70  61  73 S5        29.82S
MASON CITY     CLOUDY    66  63  90 SW8       29.82S
CHARLES CITY   CLOUDY    70  66  88 S7        29.83R
OELWEIN        MOCLDY    73  55  53 S8        29.83F
$$

...ELSEWHERE IN IOWA...


CITY           SKY/WX    TMP DP  RH WIND       PRES   REMARKS
DES MOINES     CLOUDY    71  59  65 S3        29.83S
IOWA CITY      MOCLDY    73  51  46 CALM      29.86S
FORT DODGE     CLOUDY    66  59  77 S7        29.82S
MARSHALLTOWN   CLOUDY    70  57  63 S7        29.83R
CEDAR RAPIDS   PTCLDY    72  53  51 SE5       29.83F
$$

...NORTHERN ILLINOIS...


CITY           SKY/WX    TMP DP  RH WIND       PRES   REMARKS
CHICAGO-OHARE  MOCLDY    70  38  31 SE10      29.91S
CHICAGO-MIDWAY MOCLDY    72  39  30 E6        29.91F
MOLINE         MOCLDY    73  47  39 S5        29.86S
ROCKFORD       MOCLDY    73  47  39 S6        29.90S
PEORIA         CLOUDY    73  47  39 S3        29.89S
$$

NOTE: "FAIR" INDICATES FEW OR NO CLOUDS BELOW 12,000 FEET WITH NO
SIGNIFICANT WEATHER AND/OR OBSTRUCTIONS TO VISIBILITY. WIND
SPEEDS ARE IN MILES-PER-HOUR.




USA.gov is the U.S. government's official web portal to all federal, state and local government web resources and services.